timestamp,wind_dir_avg,wind_spd_avg,wind_spd_max_dir,wind_spd_gust,battery_voltage,lat,long
2023-04-15 00:04:01+00:00,309.0,8.47,312.0,9.93,12.57,47.59359,-54.27349
2023-04-15 00:14:01+00:00,310.0,8.21,315.0,9.73,12.33,47.59359,-54.27349
2023-04-15 00:24:01+00:00,309.0,7.0,320.0,8.76,12.33,47.59359,-54.27349
2023-04-15 00:34:01+00:00,295.0,7.49,300.0,9.06,12.33,47.59359,-54.27349
2023-04-15 00:44:01+00:00,285.0,6.73,291.0,7.55,12.33,47.59359,-54.27349
2023-04-15 00:54:01+00:00,305.0,7.47,304.0,8.58,12.33,47.59359,-54.27349
2023-04-15 01:04:01+00:00,296.0,11.3,302.0,14.49,12.33,47.59359,-54.27349
2023-04-15 01:14:00+00:00,300.0,9.07,296.0,13.47,12.33,47.59359,-54.27349
2023-04-15 01:24:00+00:00,299.0,11.76,294.0,15.12,12.33,47.59359,-54.27349
2023-04-15 01:34:00+00:00,302.0,9.53,291.0,13.99,12.33,47.59359,-54.27349
2023-04-15 01:44:00+00:00,300.0,9.76,292.0,13.98,12.33,47.59359,-54.27349
2023-04-15 01:54:00+00:00,303.0,11.39,296.0,15.41,12.33,47.59359,-54.27349
2023-04-15 02:04:00+00:00,310.0,10.46,300.0,14.66,12.33,47.59359,-54.27349
2023-04-15 02:14:00+00:00,308.0,9.62,300.0,12.97,12.33,47.59359,-54.27349
2023-04-15 02:24:00+00:00,308.0,9.47,298.0,13.48,12.33,47.59359,-54.27349
2023-04-15 02:34:00+00:00,308.0,8.95,297.0,15.8,12.33,47.59359,-54.27349
2023-04-15 02:44:00+00:00,306.0,9.73,295.0,12.98,12.33,47.59359,-54.27349
2023-04-15 02:54:00+00:00,314.0,9.41,308.0,12.33,12.33,47.59359,-54.27349
2023-04-15 03:04:00+00:00,315.0,8.38,324.0,11.04,12.33,47.59359,-54.27349
2023-04-15 03:14:01+00:00,310.0,8.89,308.0,11.01,12.25,47.59359,-54.27349
2023-04-15 03:24:01+00:00,310.0,9.62,294.0,14.49,12.25,47.59359,-54.27349
2023-04-15 03:34:01+00:00,315.0,10.46,306.0,15.12,12.25,47.59359,-54.27349
2023-04-15 03:44:01+00:00,314.0,9.21,299.0,14.54,12.25,47.59359,-54.27349
2023-04-15 03:54:01+00:00,307.0,13.19,302.0,16.72,12.25,47.59359,-54.27349
2023-04-15 04:04:01+00:00,312.0,11.16,303.0,15.42,12.25,47.59359,-54.27349
2023-04-15 04:14:00+00:00,305.0,9.7,296.0,12.34,12.25,47.59359,-54.27349
2023-04-15 04:24:00+00:00,315.0,10.44,310.0,13.02,12.25,47.59359,-54.27349
2023-04-15 04:34:00+00:00,308.0,8.35,309.0,9.86,12.25,47.59359,-54.27349
2023-04-15 04:44:00+00:00,312.0,10.78,309.0,13.76,12.25,47.59359,-54.27349
2023-04-15 04:54:00+00:00,315.0,10.66,314.0,12.29,12.25,47.59359,-54.27349
2023-04-15 05:04:00+00:00,310.0,9.47,318.0,11.68,12.25,47.59359,-54.27349
2023-04-15 05:14:00+00:00,307.0,9.15,300.0,12.61,12.25,47.59359,-54.27349
2023-04-15 05:24:00+00:00,307.0,8.11,323.0,11.44,12.25,47.59359,-54.27349
2023-04-15 05:34:00+00:00,301.0,9.4,299.0,11.58,12.25,47.59359,-54.27349
2023-04-15 05:44:00+00:00,306.0,10.58,303.0,13.07,12.25,47.59359,-54.27349
2023-04-15 05:54:00+00:00,303.0,8.57,305.0,9.71,12.25,47.59359,-54.27349
2023-04-15 06:04:00+00:00,307.0,9.8,302.0,12.96,12.25,47.59359,-54.27349
2023-04-15 06:14:01+00:00,309.0,10.51,306.0,13.81,12.17,47.59359,-54.27349
2023-04-15 06:24:01+00:00,301.0,11.34,290.0,16.99,12.17,47.59359,-54.27349
2023-04-15 06:34:01+00:00,313.0,10.18,310.0,13.09,12.17,47.59359,-54.27349
2023-04-15 06:44:01+00:00,313.0,10.28,312.0,13.36,12.17,47.59359,-54.27349
2023-04-15 06:54:01+00:00,309.0,9.09,304.0,11.76,12.17,47.59359,-54.27349
2023-04-15 07:04:01+00:00,312.0,9.68,308.0,12.07,12.17,47.59359,-54.27349
2023-04-15 07:14:01+00:00,313.0,9.08,318.0,10.89,12.17,47.59359,-54.27349
2023-04-15 07:24:01+00:00,315.0,12.06,319.0,14.85,12.17,47.59359,-54.27349
2023-04-15 07:34:01+00:00,314.0,11.27,311.0,13.23,12.17,47.59359,-54.27349
2023-04-15 07:44:01+00:00,313.0,10.76,314.0,13.91,12.17,47.59359,-54.27349
2023-04-15 07:54:01+00:00,317.0,12.05,317.0,13.82,12.17,47.59359,-54.27349
2023-04-15 08:04:01+00:00,323.0,12.77,327.0,15.26,12.17,47.59359,-54.27349
2023-04-15 08:14:01+00:00,317.0,12.01,318.0,14.48,12.17,47.59359,-54.27349
2023-04-15 08:24:01+00:00,318.0,12.72,319.0,14.51,12.17,47.59359,-54.27349
2023-04-15 08:34:01+00:00,319.0,12.8,316.0,15.88,12.17,47.59359,-54.27349
2023-04-15 08:44:01+00:00,320.0,11.84,320.0,13.51,12.17,47.59359,-54.27349
2023-04-15 08:54:01+00:00,318.0,12.62,321.0,14.53,12.17,47.59359,-54.27349
2023-04-15 09:04:01+00:00,318.0,12.08,319.0,13.79,12.17,47.59359,-54.27349
2023-04-15 09:14:00+00:00,317.0,11.58,323.0,13.34,12.17,47.59359,-54.27349
2023-04-15 09:24:00+00:00,315.0,10.98,320.0,14.49,12.17,47.59359,-54.27349
2023-04-15 09:34:00+00:00,320.0,12.18,326.0,14.26,12.17,47.59359,-54.27349
2023-04-15 09:44:00+00:00,319.0,11.79,326.0,13.63,12.17,47.59359,-54.27349
2023-04-15 09:54:00+00:00,320.0,11.3,323.0,13.82,12.17,47.59359,-54.27349
2023-04-15 10:04:00+00:00,320.0,12.41,323.0,14.63,12.17,47.59359,-54.27349
2023-04-15 10:14:00+00:00,322.0,11.84,328.0,14.33,13.05,47.59359,-54.27349
2023-04-15 10:24:00+00:00,321.0,11.69,320.0,13.42,13.05,47.59359,-54.27349
2023-04-15 10:34:00+00:00,325.0,11.53,321.0,13.72,13.05,47.59359,-54.27349
2023-04-15 10:44:00+00:00,323.0,11.07,325.0,13.54,13.05,47.59359,-54.27349
2023-04-15 10:54:00+00:00,322.0,11.5,315.0,13.94,13.05,47.59359,-54.27349
2023-04-15 11:04:00+00:00,326.0,10.59,324.0,13.15,13.05,47.59359,-54.27349
2023-04-15 11:14:00+00:00,322.0,13.26,326.0,15.4,14.0,47.59359,-54.27349
2023-04-15 11:24:00+00:00,332.0,10.73,333.0,13.97,14.0,47.59359,-54.27349
2023-04-15 11:34:00+00:00,333.0,12.48,321.0,15.66,14.0,47.59359,-54.27349
2023-04-15 11:44:00+00:00,333.0,14.1,332.0,15.9,14.0,47.59359,-54.27349
2023-04-15 11:54:00+00:00,328.0,13.7,332.0,16.25,14.0,47.59359,-54.27349
2023-04-15 12:04:00+00:00,323.0,15.54,324.0,18.69,14.0,47.59359,-54.27349
2023-04-15 12:14:00+00:00,336.0,13.34,330.0,15.93,14.48,47.59359,-54.27349
2023-04-15 12:24:00+00:00,330.0,11.89,329.0,15.4,14.48,47.59359,-54.27349
2023-04-15 12:34:00+00:00,331.0,14.98,331.0,18.47,14.48,47.59359,-54.27349
2023-04-15 12:44:00+00:00,332.0,13.5,335.0,15.55,14.48,47.59359,-54.27349
2023-04-15 12:54:00+00:00,334.0,14.88,328.0,18.38,14.48,47.59359,-54.27349
2023-04-15 13:04:00+00:00,331.0,14.6,328.0,17.45,14.48,47.59359,-54.27349
2023-04-15 13:14:01+00:00,344.0,12.82,341.0,14.48,14.48,47.59359,-54.27349
2023-04-15 13:24:01+00:00,329.0,13.47,324.0,16.08,14.48,47.59359,-54.27349
2023-04-15 13:34:01+00:00,334.0,13.71,331.0,17.57,14.48,47.59359,-54.27349
2023-04-15 13:44:01+00:00,338.0,13.11,341.0,16.33,14.48,47.59359,-54.27349
2023-04-15 13:54:01+00:00,339.0,14.66,336.0,17.91,14.48,47.59359,-54.27349
2023-04-15 14:04:01+00:00,340.0,14.75,343.0,16.79,14.48,47.59359,-54.27349
2023-04-15 14:14:00+00:00,348.0,13.67,342.0,16.39,14.4,47.59359,-54.27349
2023-04-15 14:24:00+00:00,337.0,12.26,338.0,14.52,14.4,47.59359,-54.27349
2023-04-15 14:34:00+00:00,332.0,15.11,335.0,18.16,14.4,47.59359,-54.27349
2023-04-15 14:44:00+00:00,336.0,12.28,338.0,14.39,14.4,47.59359,-54.27349
2023-04-15 14:54:00+00:00,328.0,13.43,323.0,16.84,14.4,47.59359,-54.27349
2023-04-15 15:04:00+00:00,344.0,13.62,346.0,16.55,14.4,47.59359,-54.27349
2023-04-15 15:14:00+00:00,341.0,13.43,339.0,15.49,14.48,47.59359,-54.27349
2023-04-15 15:24:00+00:00,344.0,12.37,347.0,14.2,14.48,47.59359,-54.27349
2023-04-15 15:34:00+00:00,348.0,10.8,342.0,12.42,14.48,47.59359,-54.27349
2023-04-15 15:44:00+00:00,352.0,11.34,348.0,13.29,14.48,47.59359,-54.27349
2023-04-15 15:54:00+00:00,350.0,14.52,341.0,17.82,14.48,47.59359,-54.27349
2023-04-15 16:04:00+00:00,359.0,12.09,7.0,13.91,14.48,47.59359,-54.27349
2023-04-15 16:14:00+00:00,359.0,10.49,356.0,11.72,14.24,47.59359,-54.27349
2023-04-15 16:24:00+00:00,337.0,11.44,334.0,13.6,14.24,47.59359,-54.27349
2023-04-15 16:34:00+00:00,338.0,12.83,335.0,14.64,14.24,47.59359,-54.27349
2023-04-15 16:44:00+00:00,3.0,12.62,3.0,14.72,14.24,47.59359,-54.27349
2023-04-15 16:54:00+00:00,355.0,10.85,354.0,12.32,14.24,47.59359,-54.27349
2023-04-15 17:04:00+00:00,334.0,10.25,337.0,12.18,14.24,47.59359,-54.27349
2023-04-15 17:14:00+00:00,347.0,12.37,341.0,14.15,13.44,47.59359,-54.27349
2023-04-15 17:24:00+00:00,348.0,12.03,353.0,15.78,13.44,47.59359,-54.27349
2023-04-15 17:34:00+00:00,359.0,9.18,359.0,11.01,13.44,47.59359,-54.27349
2023-04-15 17:44:00+00:00,354.0,12.07,345.0,13.71,13.44,47.59359,-54.27349
2023-04-15 17:54:00+00:00,345.0,13.08,339.0,15.07,13.44,47.59359,-54.27349
2023-04-15 18:04:00+00:00,347.0,9.48,343.0,12.05,13.44,47.59359,-54.27349
2023-04-15 18:14:00+00:00,2.0,12.09,0.0,14.16,14.32,47.59359,-54.27349
2023-04-15 18:24:00+00:00,351.0,11.37,356.0,13.37,14.32,47.59359,-54.27349
2023-04-15 18:34:00+00:00,348.0,11.61,355.0,14.14,14.32,47.59359,-54.27349
2023-04-15 18:44:00+00:00,342.0,15.26,344.0,18.27,14.32,47.59359,-54.27349
2023-04-15 18:54:00+00:00,341.0,14.92,341.0,17.29,14.32,47.59359,-54.27349
2023-04-15 19:04:00+00:00,343.0,10.13,331.0,12.66,14.32,47.59359,-54.27349
2023-04-15 20:14:00+00:00,359.0,12.56,0.0,14.43,13.68,47.59359,-54.27349
2023-04-15 20:24:00+00:00,20.0,8.97,31.0,10.93,13.68,47.59359,-54.27349
2023-04-15 20:34:00+00:00,353.0,9.86,342.0,11.69,13.68,47.59359,-54.27349
2023-04-15 20:44:00+00:00,5.0,8.55,4.0,9.47,13.68,47.59359,-54.27349
2023-04-15 20:54:00+00:00,25.0,9.24,35.0,10.73,13.68,47.59359,-54.27349
2023-04-15 21:04:00+00:00,6.0,10.41,6.0,11.98,13.68,47.59359,-54.27349
2023-04-15 21:14:00+00:00,1.0,11.44,2.0,13.97,13.44,47.59359,-54.27349
2023-04-15 21:24:00+00:00,2.0,10.55,2.0,12.32,13.44,47.59359,-54.27349
2023-04-15 21:34:00+00:00,6.0,9.91,16.0,12.0,13.44,47.59359,-54.27349
2023-04-15 21:44:00+00:00,21.0,9.14,32.0,11.19,13.44,47.59359,-54.27349
2023-04-15 21:54:00+00:00,15.0,9.12,30.0,11.07,13.44,47.59359,-54.27349
2023-04-15 22:04:00+00:00,1.0,6.39,1.0,6.86,13.44,47.59359,-54.27349
2023-04-15 22:14:00+00:00,20.0,6.68,42.0,8.42,13.13,47.59359,-54.27349
2023-04-15 22:24:00+00:00,39.0,7.77,42.0,8.46,13.13,47.59359,-54.27349
2023-04-15 22:34:00+00:00,23.0,5.96,43.0,8.41,13.13,47.59359,-54.27349
2023-04-15 22:44:00+00:00,4.0,6.5,35.0,8.88,13.13,47.59359,-54.27349
2023-04-15 22:54:00+00:00,357.0,5.74,357.0,6.19,13.13,47.59359,-54.27349
2023-04-15 23:04:00+00:00,355.0,5.51,356.0,5.84,13.13,47.59359,-54.27349
2023-04-15 23:14:01+00:00,358.0,5.98,358.0,6.08,12.57,47.59359,-54.27349
2023-04-15 23:24:01+00:00,357.0,6.15,358.0,6.38,12.57,47.59359,-54.27349
2023-04-15 23:34:01+00:00,355.0,5.62,356.0,5.99,12.57,47.59359,-54.27349
2023-04-15 23:44:01+00:00,353.0,5.56,354.0,6.16,12.57,47.59359,-54.27349
2023-04-15 23:54:01+00:00,347.0,6.2,324.0,7.99,12.57,47.59359,-54.27349
